Weather History for Bilbao, Spain

Change the Weather History Date:

Friday, February 14, 2014

  Actual Average Record
Temperature  
Mean Temperature 61 °F -  
Max Temperature 75 °F 58 °F 75 °F (1998)
Min Temperature 47 °F 42 °F 30 °F (1999)
Degree Days  
Heating Degree Days 4    
Growing Degree Days 11 (Base 50)    
Moisture  
Dew Point 45 °F    
Average Humidity 48    
Maximum Humidity 77    
Minimum Humidity 17    
Precipitation  
Precipitation 0.00 in - - ()
Sea Level Pressure  
Sea Level Pressure 29.59 in    
Wind  
Wind Speed 12 mph ()    
Max Wind Speed 36 mph    
Max Gust Speed 55 mph    
Visibility 7.5 miles    
Events Rain    
Averages and records for this station are not official NWS values.
T = Trace of Precipitation, MM = Missing Value Source: Averaged Metar Reports

Daily Weather History Graph

Daily Weather History Graph

Search for Another Location

Airport:

Trip Planner

Search our weather history database for the weather conditions in past years. The results will help you decide how hot, cold, wet, or windy it might be!

Date:

Astronomy

Feb. 14, 2014 Rise Set
Actual Time 8:11 AM CET 6:40 PM CET
Civil Twilight 7:41 AM CET 7:10 PM CET
Nautical Twilight 7:08 AM CET 7:43 PM CET
Astronomical Twilight 6:35 AM CET 8:16 PM CET
Moon 6:32 PM CET (2/14) 7:29 AM CET (2/14)
Length of Visible Light 11h 28m
Length of Day
10h 29m
Full, 100% of the Moon is Illuminated
Feb 14
Full
Feb 15
Full
Feb 22
Last Quarter
Mar 1
New
Mar 8
First Quarter

Hourly Weather History & Observations

Time (CET) Temp. Dew Point Humidity Pressure Visibility Wind Dir Wind Speed Gust Speed Precip Events Conditions
5:00 AM 64.4 °F 48.2 °F 56% 29.68 in - SSW 8.1 mph 23.0 mph N/A   Clear
5:30 AM 66.2 °F 48.2 °F 52% 29.65 in - Variable 11.5 mph 26.5 mph N/A   Clear
6:00 AM 66.2 °F 48.2 °F 52% 29.68 in - SSW 9.2 mph - N/A   Clear
6:30 AM 66.2 °F 48.2 °F 52% 29.65 in - Variable 8.1 mph - N/A   Clear
7:00 AM 68 °F 48 °F 37% 29.67 in 12 mi WSW 9.2 mph - -   Partly Cloudy
7:00 AM 66.2 °F 48.2 °F 52% 29.65 in - WSW 10.4 mph - N/A   Clear
7:30 AM 66.2 °F 48.2 °F 52% 29.65 in - Variable 5.8 mph - N/A   Clear
8:00 AM 68.0 °F 48.2 °F 49% 29.65 in 6.2 mi South 11.5 mph - N/A   Scattered Clouds
8:30 AM 68.0 °F 48.2 °F 49% 29.65 in 6.2 mi Variable 8.1 mph 21.9 mph N/A   Scattered Clouds
9:00 AM 68.0 °F 48.2 °F 49% 29.65 in 6.2 mi Variable 8.1 mph 28.8 mph N/A   Scattered Clouds
9:30 AM 66.2 °F 48.2 °F 52% 29.65 in 6.2 mi Variable 10.4 mph 23.0 mph N/A   Scattered Clouds
10:00 AM 69 °F 47 °F 35% 29.63 in 16 mi SSW 16.1 mph - -   Partly Cloudy
10:00 AM 68.0 °F 48.2 °F 49% 29.62 in 6.2 mi SSW 16.1 mph 32.2 mph N/A   Scattered Clouds
10:30 AM 68.0 °F 46.4 °F 46% 29.59 in 6.2 mi SW 26.5 mph 47.2 mph N/A   Partly Cloudy
11:00 AM 69.8 °F 46.4 °F 43% 29.59 in 6.2 mi SSW 16.1 mph 32.2 mph N/A   Partly Cloudy
11:30 AM 69.8 °F 46.4 °F 43% 29.59 in 6.2 mi SW 20.7 mph 34.5 mph N/A   Partly Cloudy
12:00 PM 69.8 °F 46.4 °F 43% 29.59 in 6.2 mi Variable 11.5 mph 25.3 mph N/A   Scattered Clouds
12:30 PM 71.6 °F 46.4 °F 41% 29.59 in 6.2 mi Variable 9.2 mph 25.3 mph N/A   Scattered Clouds
1:00 PM 74 °F 45 °F 25% 29.57 in 16 mi SSW 16.1 mph - -   Partly Cloudy
1:00 PM 73.4 °F 46.4 °F 38% 29.56 in 6.2 mi SSW 16.1 mph 36.8 mph N/A   Scattered Clouds
1:30 PM 73.4 °F 42.8 °F 33% 29.53 in 6.2 mi WSW 18.4 mph 33.4 mph N/A   Scattered Clouds
2:00 PM 73.4 °F 44.6 °F 36% 29.53 in 6.2 mi SW 24.2 mph 55.2 mph N/A   Scattered Clouds
2:30 PM 73.4 °F 41.0 °F 31% 29.53 in 6.2 mi WSW 34.5 mph 55.2 mph N/A   Scattered Clouds
3:00 PM 73.4 °F 41.0 °F 31% 29.50 in 6.2 mi SW 27.6 mph 50.6 mph N/A   Scattered Clouds
3:30 PM 73.4 °F 39.2 °F 29% 29.50 in 6.2 mi WSW 35.7 mph 49.5 mph N/A   Scattered Clouds
4:00 PM 75 °F 39 °F 17% 29.52 in 16 mi SW 28.8 mph - -   Partly Cloudy
4:00 PM 73.4 °F 41.0 °F 31% 29.50 in 6.2 mi SW 26.5 mph 49.5 mph N/A   Scattered Clouds
4:30 PM 73.4 °F 39.2 °F 29% 29.50 in 6.2 mi WSW 23.0 mph 44.9 mph N/A   Scattered Clouds
5:00 PM 73.4 °F 41.0 °F 31% 29.50 in 6.2 mi SW 16.1 mph 27.6 mph N/A   Scattered Clouds
5:30 PM 71.6 °F 41.0 °F 33% 29.53 in 6.2 mi SW 18.4 mph 33.4 mph N/A   Scattered Clouds
6:00 PM 71.6 °F 41.0 °F 33% 29.53 in - West 21.9 mph 34.5 mph N/A   Clear
6:30 PM 64.4 °F 46.4 °F 52% 29.56 in - West 12.7 mph 27.6 mph N/A   Clear
7:00 PM 59 °F 48 °F 57% 29.60 in 12 mi WNW 5.8 mph - -   Partly Cloudy
7:00 PM 57.2 °F 46.4 °F 67% 29.59 in - WNW 5.8 mph - N/A   Clear
7:30 PM 57.2 °F 48.2 °F 72% 29.59 in - NNW 4.6 mph - N/A   Clear
8:00 PM 55.4 °F 46.4 °F 72% 29.62 in - Calm Calm - N/A   Clear
8:30 PM 55.4 °F 46.4 °F 72% 29.62 in - Variable 1.2 mph - N/A   Clear
9:00 PM 55.4 °F 46.4 °F 72% 29.62 in 6.2 mi Variable 1.2 mph - N/A Rain Light Rain
9:30 PM 55.4 °F 46.4 °F 72% 29.62 in 6.2 mi Variable 2.3 mph - N/A   Mostly Cloudy
10:00 PM 53.6 °F 46.4 °F 77% 29.62 in 6.2 mi Variable 2.3 mph - N/A   Mostly Cloudy
10:30 PM 53.6 °F 46.4 °F 77% 29.62 in 6.2 mi West 4.6 mph - N/A   Mostly Cloudy
11:00 PM 53.6 °F 46.4 °F 77% 29.62 in 6.2 mi Calm Calm - N/A Rain Light Rain
11:30 PM 59.0 °F 41.0 °F 51% 29.62 in 6.2 mi SW 13.8 mph - N/A   Scattered Clouds